Weather History for Baton Rouge, LA

Change the Weather History Date:

Wednesday, January 30, 2013

  Actual Average Record
Temperature  
Mean Temperature 58 °F 52 °F  
Max Temperature 74 °F 63 °F 83 °F (2002)
Min Temperature 42 °F 42 °F 15 °F (1966)
Degree Days  
Heating Degree Days 7 13  
Month to date heating degree days 324 413  
Since 1 July heating degree days 901 1029  
Cooling Degree Days 0 0  
Month to date cooling degree days 21 3  
Year to date cooling degree days 21 3  
Growing Degree Days 9 (Base 50)    
Moisture  
Dew Point 46 °F    
Average Humidity 69    
Maximum Humidity 100    
Minimum Humidity 37    
Precipitation  
Precipitation 0.85 in 0.19 in 1.90 in (1922)
Month to date precipitation 14.67 5.53  
Year to date precipitation 14.67 5.53  
Snow  
Snow 0.00 in - - ()
Month to date snowfall 0.0  
Since 1 July snowfall 0.0  
Snow Depth 0.00 in    
Sea Level Pressure  
Sea Level Pressure 29.85 in    
Wind  
Wind Speed 12 mph (WNW)    
Max Wind Speed 28 mph    
Max Gust Speed 41 mph    
Visibility 8 miles    
Events Rain    
T = Trace of Precipitation, MM = Missing Value Source: NWS Daily Summary

Daily Weather History Graph

Daily Weather History Graph

Search for Another Location

Airport:

Trip Planner

Search our weather history database for the weather conditions in past years. The results will help you decide how hot, cold, wet, or windy it might be!

Date:

Astronomy

Jan. 30, 2013 Rise Set
Actual Time 6:56 AM CST 5:39 PM CST
Civil Twilight 6:31 AM CST 6:04 PM CST
Nautical Twilight 6:02 AM CST 6:33 PM CST
Astronomical Twilight 5:34 AM CST 7:02 PM CST
Moon 9:17 PM CST (1/30) 8:43 AM CST (1/30)
Length of Visible Light 11h 33m
Length of Day
10h 42m
Waning Gibbous, 87% of the Moon is Illuminated
Jan 30
Waning Gibbous
Feb 3
Last Quarter
Feb 10
New
Feb 17
First Quarter
Feb 25
Full

Hourly Weather History & Observations

Time (CST) Temp. Windchill Dew Point Humidity Pressure Visibility Wind Dir Wind Speed Gust Speed Precip Events Conditions
12:53 AM 73.0 °F - 66.9 °F 81% 29.75 in 10.0 mi South 16.1 mph - N/A   Overcast
1:53 AM 73.0 °F - 66.9 °F 81% 29.73 in 10.0 mi South 18.4 mph 25.3 mph 0.00 in Rain Light Rain
2:53 AM 73.0 °F - 66.9 °F 81% 29.71 in 10.0 mi South 23.0 mph 29.9 mph 0.00 in Rain Light Rain
3:53 AM 71.1 °F - 68.0 °F 90% 29.68 in 6.0 mi SSW 19.6 mph 41.4 mph 0.01 in Rain Rain
4:33 AM 64.4 °F - 62.6 °F 94% 29.71 in 4.0 mi WNW 18.4 mph 31.1 mph 0.00 in Rain Rain
4:38 AM 57.2 °F - 55.4 °F 94% 29.71 in 2.5 mi NW 15.0 mph 31.1 mph 0.08 in Rain Heavy Rain
4:49 AM 55.4 °F - 53.6 °F 94% 29.70 in 5.0 mi NW 16.1 mph 26.5 mph 0.17 in Rain Rain
4:53 AM 55.0 °F - 54.0 °F 96% 29.72 in 5.0 mi WNW 10.4 mph 26.5 mph 0.17 in Rain Rain
5:00 AM 55.4 °F - 53.6 °F 94% 29.70 in 1.8 mi WNW 11.5 mph - 0.08 in Rain Heavy Rain
5:19 AM 53.6 °F - 53.6 °F 100% 29.72 in 3.0 mi WNW 9.2 mph 19.6 mph 0.57 in Rain Rain
5:26 AM 53.6 °F - 53.6 °F 100% 29.72 in 6.0 mi WNW 9.2 mph - 0.60 in Rain Light Rain
5:53 AM 54.0 °F - 53.1 °F 97% 29.71 in 10.0 mi WNW 8.1 mph - 0.62 in Rain Light Rain
6:53 AM 54.0 °F - 52.0 °F 93% 29.73 in 8.0 mi Calm Calm - 0.05 in Rain Light Rain
7:53 AM 54.0 °F - 52.0 °F 93% 29.76 in 10.0 mi WNW 4.6 mph - 0.00 in   Mostly Cloudy
8:53 AM 55.9 °F - 53.1 °F 90% 29.79 in 10.0 mi West 8.1 mph - N/A   Mostly Cloudy
9:53 AM 57.0 °F - 50.0 °F 77% 29.81 in 10.0 mi West 9.2 mph - N/A   Overcast
10:53 AM 57.9 °F - 48.0 °F 70% 29.82 in 10.0 mi West 15.0 mph 21.9 mph N/A   Mostly Cloudy
11:53 AM 57.9 °F - 36.0 °F 44% 29.83 in 10.0 mi West 17.3 mph 23.0 mph N/A   Overcast
12:53 PM 57.0 °F - 35.1 °F 44% 29.85 in 10.0 mi West 18.4 mph 27.6 mph N/A   Overcast
1:53 PM 57.9 °F - 34.0 °F 41% 29.86 in 10.0 mi West 20.7 mph 26.5 mph N/A   Mostly Cloudy
2:53 PM 59.0 °F - 33.1 °F 38% 29.88 in 10.0 mi WNW 15.0 mph 29.9 mph N/A   Clear
3:53 PM 57.9 °F - 35.1 °F 42% 29.91 in 10.0 mi NW 16.1 mph 26.5 mph N/A   Clear
4:53 PM 55.0 °F - 33.1 °F 43% 29.96 in 10.0 mi NW 15.0 mph 25.3 mph N/A   Clear
5:53 PM 52.0 °F - 32.0 °F 47% 30.00 in 10.0 mi WNW 16.1 mph 26.5 mph N/A   Clear
6:53 PM 48.9 °F - 28.9 °F 46% 30.06 in 10.0 mi NW 11.5 mph 23.0 mph N/A   Clear
7:53 PM 48.0 °F - 28.9 °F 48% 30.09 in 10.0 mi NW 10.4 mph - N/A   Clear
8:53 PM 46.0 °F 44.8 °F 28.9 °F 51% 30.12 in 10.0 mi NW 3.5 mph - N/A   Clear
9:53 PM 45.0 °F 43.5 °F 30.0 °F 56% 30.16 in 10.0 mi WNW 3.5 mph - N/A   Clear
10:53 PM 45.0 °F - 30.9 °F 58% 30.18 in 10.0 mi Calm Calm - N/A   Clear
11:53 PM 42.1 °F - 32.0 °F 67% 30.20 in 10.0 mi Calm Calm - N/A   Clear